Ana Sayfa
METAR-TAF:

METAR-TAF

Havaalanları :

Wiscasset Airport

Wiscasset, Maine, Amerika Birleşik Devletleri

Enlem: 43-57-49N, Boylam: 069-42-42W, yükseklik: 20 m

Güncel hava durumu gözlemi

Rapor saat 21:53 UTC de 32 dakika önce yapıldı.
Sakin rüzgar
Sıcaklık -3°C
Nem 33%
Basınç 1033 hPa
Görüş mesafesi: 16.1 km
Açık gökyüzü

METAR: KIWI 162153Z AUTO 00000KT 10SM CLR M03/M17 A3049 RMK AO2 SLP327 T10281172

Saat: 17:25 (22:25 UTC)


TAF: eksik

4.000'den fazla havaalanı için hava durumu gözlemleri ve tahminleri (METAR ve TAF raporları).

Kullanılabilir istasyonlar harita üzerinde sarı ve kırmızı noktalarla gösterilir.

İstasyonun adını görmek için fareyi noktanın üzerinde gezdirin.

Sonrasında hava gözlem ve tahminlerini görmek için tıklayın.

Haritayı değiştirmek için: yaklaştırmak için siyah artı işaretli yeşil düğmeye ve uzaklaştırmak için de eksi işaretli düğmeye hızla tıklayın; bitişik haritalar için yeşil okları kullanın.


METAR-TAF: